owner,sensor,date,latitude,longitude,air_temperature,qcFlag 
WAVCIS,ioos:station:WAVCIS:CSI09:1,2009-04-01T00:00:00Z,29.1015,-89.9782,20.37,11111222 
WAVCIS,ioos:station:WAVCIS:CSI09:1,2009-04-01T01:00:00Z,29.1015,-89.9782,20.52,11111222 
WAVCIS,ioos:station:WAVCIS:CSI09:1,2009-04-01T02:00:00Z,29.1015,-89.9782,20.71,11111222 
WAVCIS,ioos:station:WAVCIS:CSI09:1,2009-04-01T03:00:00Z,29.1015,-89.9782,21.13,11111222 
WAVCIS,ioos:station:WAVCIS:CSI09:1,2009-04-01T04:00:00Z,29.1015,-89.9782,20.75,11111222 
WAVCIS,ioos:station:WAVCIS:CSI09:1,2009-04-01T05:00:00Z,29.1015,-89.9782,20.59,11111222 
WAVCIS,ioos:station:WAVCIS:CSI09:1,2009-04-01T06:00:00Z,29.1015,-89.9782,20.63,11111222 
WAVCIS,ioos:station:WAVCIS:CSI09:1,2009-04-01T07:00:00Z,29.1015,-89.9782,20.29,11111222 
WAVCIS,ioos:station:WAVCIS:CSI09:1,2009-04-01T08:00:00Z,29.1015,-89.9782,20.07,11111222 
WAVCIS,ioos:station:WAVCIS:CSI09:1,2009-04-01T09:00:00Z,29.1015,-89.9782,19.96,11111222 
WAVCIS,ioos:station:WAVCIS:CSI09:1,2009-04-01T10:00:00Z,29.1015,-89.9782,19.15,11111222 
WAVCIS,ioos:station:WAVCIS:CSI09:1,2009-04-01T11:00:00Z,29.1015,-89.9782,18.09,11111222 
WAVCIS,ioos:station:WAVCIS:CSI09:1,2009-04-01T12:00:00Z,29.1015,-89.9782,17.9,11111222 
WAVCIS,ioos:station:WAVCIS:CSI09:1,2009-04-01T13:00:00Z,29.1015,-89.9782,17.43,11111222 
WAVCIS,ioos:station:WAVCIS:CSI09:1,2009-04-01T14:00:00Z,29.1015,-89.9782,17.23,11111222 
WAVCIS,ioos:station:WAVCIS:CSI09:1,2009-04-01T15:00:00Z,29.1015,-89.9782,17.6,11111222 
WAVCIS,ioos:station:WAVCIS:CSI09:1,2009-04-01T16:00:00Z,29.1015,-89.9782,17.61,11111222 
WAVCIS,ioos:station:WAVCIS:CSI09:1,2009-04-01T17:00:00Z,29.1015,-89.9782,17.77,11111222 
WAVCIS,ioos:station:WAVCIS:CSI09:1,2009-04-01T18:00:00Z,29.1015,-89.9782,17.89,11111222 
WAVCIS,ioos:station:WAVCIS:CSI09:1,2009-04-01T19:00:00Z,29.1015,-89.9782,18.21,11111222 
WAVCIS,ioos:station:WAVCIS:CSI09:1,2009-04-01T20:00:00Z,29.1015,-89.9782,18.35,11111222 
WAVCIS,ioos:station:WAVCIS:CSI09:1,2009-04-01T21:00:00Z,29.1015,-89.9782,18.58,11111222 
WAVCIS,ioos:station:WAVCIS:CSI09:1,2009-04-01T22:00:00Z,29.1015,-89.9782,18.64,11111222 
WAVCIS,ioos:station:WAVCIS:CSI09:1,2009-04-01T23:00:00Z,29.1015,-89.9782,18.79,11111222 
WAVCIS,ioos:station:WAVCIS:CSI09:1,2009-04-02T00:00:00Z,29.1015,-89.9782,18.74,11111222 
WAVCIS,ioos:station:WAVCIS:CSI09:1,2009-04-02T01:00:00Z,29.1015,-89.9782,18.99,11111222 
WAVCIS,ioos:station:WAVCIS:CSI09:1,2009-04-02T02:00:00Z,29.1015,-89.9782,19.3,11111222 
WAVCIS,ioos:station:WAVCIS:CSI09:1,2009-04-02T03:00:00Z,29.1015,-89.9782,19.46,11111222 
WAVCIS,ioos:station:WAVCIS:CSI09:1,2009-04-02T04:00:00Z,29.1015,-89.9782,19.95,11111222 
WAVCIS,ioos:station:WAVCIS:CSI09:1,2009-04-02T05:00:00Z,29.1015,-89.9782,20.85,11111222 
WAVCIS,ioos:station:WAVCIS:CSI09:1,2009-04-02T06:00:00Z,29.1015,-89.9782,21.14,11111222 
WAVCIS,ioos:station:WAVCIS:CSI09:1,2009-04-02T07:00:00Z,29.1015,-89.9782,21.1,11111222 
WAVCIS,ioos:station:WAVCIS:CSI09:1,2009-04-02T08:00:00Z,29.1015,-89.9782,21.42,11111222 
WAVCIS,ioos:station:WAVCIS:CSI09:1,2009-04-02T09:00:00Z,29.1015,-89.9782,21.68,11111222 
WAVCIS,ioos:station:WAVCIS:CSI09:1,2009-04-02T10:00:00Z,29.1015,-89.9782,22.2,11111222 
WAVCIS,ioos:station:WAVCIS:CSI09:1,2009-04-02T11:00:00Z,29.1015,-89.9782,21.7,11111222 
WAVCIS,ioos:station:WAVCIS:CSI09:1,2009-04-02T12:00:00Z,29.1015,-89.9782,18.27,11111222 
WAVCIS,ioos:station:WAVCIS:CSI09:1,2009-04-02T13:00:00Z,29.1015,-89.9782,18.53,11111222 
WAVCIS,ioos:station:WAVCIS:CSI09:1,2009-04-02T14:00:00Z,29.1015,-89.9782,19.73,11111222 
WAVCIS,ioos:station:WAVCIS:CSI09:1,2009-04-02T15:00:00Z,29.1015,-89.9782,20.36,11111222 
WAVCIS,ioos:station:WAVCIS:CSI09:1,2009-04-02T16:00:00Z,29.1015,-89.9782,20.53,11111222 
WAVCIS,ioos:station:WAVCIS:CSI09:1,2009-04-02T17:00:00Z,29.1015,-89.9782,20.51,11111222 
WAVCIS,ioos:station:WAVCIS:CSI09:1,2009-04-02T18:00:00Z,29.1015,-89.9782,22.91,11111222 
WAVCIS,ioos:station:WAVCIS:CSI09:1,2009-04-02T19:00:00Z,29.1015,-89.9782,22.59,11111222 
WAVCIS,ioos:station:WAVCIS:CSI09:1,2009-04-02T20:00:00Z,29.1015,-89.9782,22.77,11111222 
WAVCIS,ioos:station:WAVCIS:CSI09:1,2009-04-02T21:00:00Z,29.1015,-89.9782,22.57,11111222 
WAVCIS,ioos:station:WAVCIS:CSI09:1,2009-04-02T22:00:00Z,29.1015,-89.9782,22.05,11111222 
WAVCIS,ioos:station:WAVCIS:CSI09:1,2009-04-02T23:00:00Z,29.1015,-89.9782,20.98,11111222 
WAVCIS,ioos:station:WAVCIS:CSI09:1,2009-04-03T00:00:00Z,29.1015,-89.9782,20.9,11111222 
WAVCIS,ioos:station:WAVCIS:CSI09:1,2009-04-03T01:00:00Z,29.1015,-89.9782,20.83,11111222 
WAVCIS,ioos:station:WAVCIS:CSI09:1,2009-04-03T02:00:00Z,29.1015,-89.9782,20.96,11111222 
WAVCIS,ioos:station:WAVCIS:CSI09:1,2009-04-03T03:00:00Z,29.1015,-89.9782,20.91,11111222 
WAVCIS,ioos:station:WAVCIS:CSI09:1,2009-04-03T04:00:00Z,29.1015,-89.9782,20.61,11111222 
WAVCIS,ioos:station:WAVCIS:CSI09:1,2009-04-03T05:00:00Z,29.1015,-89.9782,20.1,11111222 
WAVCIS,ioos:station:WAVCIS:CSI09:1,2009-04-03T06:00:00Z,29.1015,-89.9782,19.58,11111222 
WAVCIS,ioos:station:WAVCIS:CSI09:1,2009-04-03T07:00:00Z,29.1015,-89.9782,18.51,11111222 
WAVCIS,ioos:station:WAVCIS:CSI09:1,2009-04-03T08:00:00Z,29.1015,-89.9782,17.74,11111222 
WAVCIS,ioos:station:WAVCIS:CSI09:1,2009-04-03T09:00:00Z,29.1015,-89.9782,16.82,11111222 
WAVCIS,ioos:station:WAVCIS:CSI09:1,2009-04-03T10:00:00Z,29.1015,-89.9782,16.09,11111222 
WAVCIS,ioos:station:WAVCIS:CSI09:1,2009-04-03T11:00:00Z,29.1015,-89.9782,15.45,11111222 
WAVCIS,ioos:station:WAVCIS:CSI09:1,2009-04-03T12:00:00Z,29.1015,-89.9782,14.96,11111222 
WAVCIS,ioos:station:WAVCIS:CSI09:1,2009-04-03T13:00:00Z,29.1015,-89.9782,14.67,11111222 
WAVCIS,ioos:station:WAVCIS:CSI09:1,2009-04-03T14:00:00Z,29.1015,-89.9782,14.59,11111222 
WAVCIS,ioos:station:WAVCIS:CSI09:1,2009-04-03T15:00:00Z,29.1015,-89.9782,14.87,11111222 
WAVCIS,ioos:station:WAVCIS:CSI09:1,2009-04-03T16:00:00Z,29.1015,-89.9782,15.2,11111222 
WAVCIS,ioos:station:WAVCIS:CSI09:1,2009-04-03T17:00:00Z,29.1015,-89.9782,15.55,11111222 
WAVCIS,ioos:station:WAVCIS:CSI09:1,2009-04-03T18:00:00Z,29.1015,-89.9782,16.16,11111222 
WAVCIS,ioos:station:WAVCIS:CSI09:1,2009-04-03T19:00:00Z,29.1015,-89.9782,16.8,11111222 
WAVCIS,ioos:station:WAVCIS:CSI09:1,2009-04-03T20:00:00Z,29.1015,-89.9782,17.58,11111222 
WAVCIS,ioos:station:WAVCIS:CSI09:1,2009-04-03T21:00:00Z,29.1015,-89.9782,18.67,11111222 
WAVCIS,ioos:station:WAVCIS:CSI09:1,2009-04-03T22:00:00Z,29.1015,-89.9782,18.38,11111222 
WAVCIS,ioos:station:WAVCIS:CSI09:1,2009-04-03T23:00:00Z,29.1015,-89.9782,18.71,11111222 
WAVCIS,ioos:station:WAVCIS:CSI09:1,2009-04-04T00:00:00Z,29.1015,-89.9782,18.43,11111222 
WAVCIS,ioos:station:WAVCIS:CSI09:1,2009-04-04T01:00:00Z,29.1015,-89.9782,18.22,11111222 
WAVCIS,ioos:station:WAVCIS:CSI09:1,2009-04-04T02:00:00Z,29.1015,-89.9782,18.22,11111222 
WAVCIS,ioos:station:WAVCIS:CSI09:1,2009-04-04T03:00:00Z,29.1015,-89.9782,17.86,11111222 
WAVCIS,ioos:station:WAVCIS:CSI09:1,2009-04-04T04:00:00Z,29.1015,-89.9782,17.71,11111222 
WAVCIS,ioos:station:WAVCIS:CSI09:1,2009-04-04T05:00:00Z,29.1015,-89.9782,17.67,11111222 
WAVCIS,ioos:station:WAVCIS:CSI09:1,2009-04-04T06:00:00Z,29.1015,-89.9782,17.64,11111222 
WAVCIS,ioos:station:WAVCIS:CSI09:1,2009-04-04T07:00:00Z,29.1015,-89.9782,17.56,11111222 
WAVCIS,ioos:station:WAVCIS:CSI09:1,2009-04-04T08:00:00Z,29.1015,-89.9782,17.45,11111222 
WAVCIS,ioos:station:WAVCIS:CSI09:1,2009-04-04T09:00:00Z,29.1015,-89.9782,17.46,11111222 
WAVCIS,ioos:station:WAVCIS:CSI09:1,2009-04-04T10:00:00Z,29.1015,-89.9782,17.56,11111222 
WAVCIS,ioos:station:WAVCIS:CSI09:1,2009-04-04T11:00:00Z,29.1015,-89.9782,17.62,11111222 
WAVCIS,ioos:station:WAVCIS:CSI09:1,2009-04-04T12:00:00Z,29.1015,-89.9782,17.74,11111222 
WAVCIS,ioos:station:WAVCIS:CSI09:1,2009-04-04T13:00:00Z,29.1015,-89.9782,18.45,11111222 
WAVCIS,ioos:station:WAVCIS:CSI09:1,2009-04-04T14:00:00Z,29.1015,-89.9782,18.79,11111222 
WAVCIS,ioos:station:WAVCIS:CSI09:1,2009-04-04T15:00:00Z,29.1015,-89.9782,19.05,11111222 
WAVCIS,ioos:station:WAVCIS:CSI09:1,2009-04-04T16:00:00Z,29.1015,-89.9782,19.21,11111222 
WAVCIS,ioos:station:WAVCIS:CSI09:1,2009-04-04T17:00:00Z,29.1015,-89.9782,19.45,11111222 
WAVCIS,ioos:station:WAVCIS:CSI09:1,2009-04-04T18:00:00Z,29.1015,-89.9782,19.85,11111222 
WAVCIS,ioos:station:WAVCIS:CSI09:1,2009-04-04T19:00:00Z,29.1015,-89.9782,19.97,11111222 
WAVCIS,ioos:station:WAVCIS:CSI09:1,2009-04-04T20:00:00Z,29.1015,-89.9782,20.22,11111222 
WAVCIS,ioos:station:WAVCIS:CSI09:1,2009-04-04T21:00:00Z,29.1015,-89.9782,20.17,11111222 
WAVCIS,ioos:station:WAVCIS:CSI09:1,2009-04-04T22:00:00Z,29.1015,-89.9782,20.11,11111222 
WAVCIS,ioos:station:WAVCIS:CSI09:1,2009-04-04T23:00:00Z,29.1015,-89.9782,20.29,11111222 
WAVCIS,ioos:station:WAVCIS:CSI09:1,2009-04-05T00:00:00Z,29.1015,-89.9782,20.17,11111222 
WAVCIS,ioos:station:WAVCIS:CSI09:1,2009-04-05T01:00:00Z,29.1015,-89.9782,20.28,11111222 
WAVCIS,ioos:station:WAVCIS:CSI09:1,2009-04-05T02:00:00Z,29.1015,-89.9782,20.2,11111222 
WAVCIS,ioos:station:WAVCIS:CSI09:1,2009-04-05T03:00:00Z,29.1015,-89.9782,19.72,11111222 
WAVCIS,ioos:station:WAVCIS:CSI09:1,2009-04-05T04:00:00Z,29.1015,-89.9782,20.16,11111222 
WAVCIS,ioos:station:WAVCIS:CSI09:1,2009-04-05T05:00:00Z,29.1015,-89.9782,20.95,11111222 
WAVCIS,ioos:station:WAVCIS:CSI09:1,2009-04-05T06:00:00Z,29.1015,-89.9782,21.1,11111222 
WAVCIS,ioos:station:WAVCIS:CSI09:1,2009-04-05T07:00:00Z,29.1015,-89.9782,21.2,11111222 
WAVCIS,ioos:station:WAVCIS:CSI09:1,2009-04-05T08:00:00Z,29.1015,-89.9782,21.32,11111222 
WAVCIS,ioos:station:WAVCIS:CSI09:1,2009-04-05T09:00:00Z,29.1015,-89.9782,21.27,11111222 
WAVCIS,ioos:station:WAVCIS:CSI09:1,2009-04-05T10:00:00Z,29.1015,-89.9782,21.37,11111222 
WAVCIS,ioos:station:WAVCIS:CSI09:1,2009-04-05T11:00:00Z,29.1015,-89.9782,21.38,11111222 
WAVCIS,ioos:station:WAVCIS:CSI09:1,2009-04-05T12:00:00Z,29.1015,-89.9782,21.3,11111222 
WAVCIS,ioos:station:WAVCIS:CSI09:1,2009-04-05T13:00:00Z,29.1015,-89.9782,21.39,11111222 
WAVCIS,ioos:station:WAVCIS:CSI09:1,2009-04-05T14:00:00Z,29.1015,-89.9782,21.67,11111222 
WAVCIS,ioos:station:WAVCIS:CSI09:1,2009-04-05T15:00:00Z,29.1015,-89.9782,21.71,11111222 
WAVCIS,ioos:station:WAVCIS:CSI09:1,2009-04-05T16:00:00Z,29.1015,-89.9782,21.92,11111222 
WAVCIS,ioos:station:WAVCIS:CSI09:1,2009-04-05T17:00:00Z,29.1015,-89.9782,22.15,11111222 
WAVCIS,ioos:station:WAVCIS:CSI09:1,2009-04-05T18:00:00Z,29.1015,-89.9782,21.94,11111222 
WAVCIS,ioos:station:WAVCIS:CSI09:1,2009-04-05T19:00:00Z,29.1015,-89.9782,21.55,11111222 
WAVCIS,ioos:station:WAVCIS:CSI09:1,2009-04-05T20:00:00Z,29.1015,-89.9782,22.26,11111222 
WAVCIS,ioos:station:WAVCIS:CSI09:1,2009-04-05T21:00:00Z,29.1015,-89.9782,22.26,11111222 
WAVCIS,ioos:station:WAVCIS:CSI09:1,2009-04-05T22:00:00Z,29.1015,-89.9782,22.24,11111222 
WAVCIS,ioos:station:WAVCIS:CSI09:1,2009-04-05T23:00:00Z,29.1015,-89.9782,21.62,11111222 
WAVCIS,ioos:station:WAVCIS:CSI09:1,2009-04-06T00:00:00Z,29.1015,-89.9782,21.7,11111222 
WAVCIS,ioos:station:WAVCIS:CSI09:1,2009-04-06T01:00:00Z,29.1015,-89.9782,21.75,11111222 
WAVCIS,ioos:station:WAVCIS:CSI09:1,2009-04-06T02:00:00Z,29.1015,-89.9782,21.7,11111222 
WAVCIS,ioos:station:WAVCIS:CSI09:1,2009-04-06T03:00:00Z,29.1015,-89.9782,21.68,11111222 
WAVCIS,ioos:station:WAVCIS:CSI09:1,2009-04-06T04:00:00Z,29.1015,-89.9782,21.62,11111222 
WAVCIS,ioos:station:WAVCIS:CSI09:1,2009-04-06T05:00:00Z,29.1015,-89.9782,22.18,11111222 
WAVCIS,ioos:station:WAVCIS:CSI09:1,2009-04-06T06:00:00Z,29.1015,-89.9782,19.85,11111222 
WAVCIS,ioos:station:WAVCIS:CSI09:1,2009-04-06T07:00:00Z,29.1015,-89.9782,18.38,11111222 
WAVCIS,ioos:station:WAVCIS:CSI09:1,2009-04-06T08:00:00Z,29.1015,-89.9782,16.57,11111222 
WAVCIS,ioos:station:WAVCIS:CSI09:1,2009-04-06T09:00:00Z,29.1015,-89.9782,15.24,11111222 
WAVCIS,ioos:station:WAVCIS:CSI09:1,2009-04-06T10:00:00Z,29.1015,-89.9782,14.1,11111222 
WAVCIS,ioos:station:WAVCIS:CSI09:1,2009-04-06T11:00:00Z,29.1015,-89.9782,12.87,11111222 
WAVCIS,ioos:station:WAVCIS:CSI09:1,2009-04-06T12:00:00Z,29.1015,-89.9782,10.67,11111222 
WAVCIS,ioos:station:WAVCIS:CSI09:1,2009-04-06T13:00:00Z,29.1015,-89.9782,10.14,11111222 
WAVCIS,ioos:station:WAVCIS:CSI09:1,2009-04-06T14:00:00Z,29.1015,-89.9782,10.11,11111222 
WAVCIS,ioos:station:WAVCIS:CSI09:1,2009-04-06T15:00:00Z,29.1015,-89.9782,10.15,11111222 
WAVCIS,ioos:station:WAVCIS:CSI09:1,2009-04-06T16:00:00Z,29.1015,-89.9782,10.65,11111222 
WAVCIS,ioos:station:WAVCIS:CSI09:1,2009-04-06T17:00:00Z,29.1015,-89.9782,11.49,11111222 
WAVCIS,ioos:station:WAVCIS:CSI09:1,2009-04-06T18:00:00Z,29.1015,-89.9782,12.47,11111222 
WAVCIS,ioos:station:WAVCIS:CSI09:1,2009-04-06T19:00:00Z,29.1015,-89.9782,13.33,11111222 
WAVCIS,ioos:station:WAVCIS:CSI09:1,2009-04-06T20:00:00Z,29.1015,-89.9782,14.31,11111222 
WAVCIS,ioos:station:WAVCIS:CSI09:1,2009-04-06T21:00:00Z,29.1015,-89.9782,15.14,11111222 
WAVCIS,ioos:station:WAVCIS:CSI09:1,2009-04-06T22:00:00Z,29.1015,-89.9782,15.7,11111222 
WAVCIS,ioos:station:WAVCIS:CSI09:1,2009-04-06T23:00:00Z,29.1015,-89.9782,15.7,11111222 
WAVCIS,ioos:station:WAVCIS:CSI09:1,2009-04-07T00:00:00Z,29.1015,-89.9782,15.38,11111222 
WAVCIS,ioos:station:WAVCIS:CSI09:1,2009-04-07T01:00:00Z,29.1015,-89.9782,14.98,11111222 
WAVCIS,ioos:station:WAVCIS:CSI09:1,2009-04-07T02:00:00Z,29.1015,-89.9782,14.55,11111222 
WAVCIS,ioos:station:WAVCIS:CSI09:1,2009-04-07T03:00:00Z,29.1015,-89.9782,13.96,11111222 
WAVCIS,ioos:station:WAVCIS:CSI09:1,2009-04-07T04:00:00Z,29.1015,-89.9782,13.6,11111222 
WAVCIS,ioos:station:WAVCIS:CSI09:1,2009-04-07T05:00:00Z,29.1015,-89.9782,12.76,11111222 
WAVCIS,ioos:station:WAVCIS:CSI09:1,2009-04-07T06:00:00Z,29.1015,-89.9782,12.18,11111222 
WAVCIS,ioos:station:WAVCIS:CSI09:1,2009-04-07T07:00:00Z,29.1015,-89.9782,11.79,11111222 
WAVCIS,ioos:station:WAVCIS:CSI09:1,2009-04-07T08:00:00Z,29.1015,-89.9782,11.22,11111222 
WAVCIS,ioos:station:WAVCIS:CSI09:1,2009-04-07T09:00:00Z,29.1015,-89.9782,10.63,11111222 
WAVCIS,ioos:station:WAVCIS:CSI09:1,2009-04-07T10:00:00Z,29.1015,-89.9782,10.34,11111222 
WAVCIS,ioos:station:WAVCIS:CSI09:1,2009-04-07T11:00:00Z,29.1015,-89.9782,9.79,11111222 
WAVCIS,ioos:station:WAVCIS:CSI09:1,2009-04-07T12:00:00Z,29.1015,-89.9782,8.82,11111222 
WAVCIS,ioos:station:WAVCIS:CSI09:1,2009-04-07T13:00:00Z,29.1015,-89.9782,8.68,11111222 
WAVCIS,ioos:station:WAVCIS:CSI09:1,2009-04-07T14:00:00Z,29.1015,-89.9782,8.55,11111222 
WAVCIS,ioos:station:WAVCIS:CSI09:1,2009-04-07T15:00:00Z,29.1015,-89.9782,8.39,11111222 
WAVCIS,ioos:station:WAVCIS:CSI09:1,2009-04-07T16:00:00Z,29.1015,-89.9782,8.72,11111222 
WAVCIS,ioos:station:WAVCIS:CSI09:1,2009-04-07T17:00:00Z,29.1015,-89.9782,9.15,11111222 
WAVCIS,ioos:station:WAVCIS:CSI09:1,2009-04-07T18:00:00Z,29.1015,-89.9782,10.14,11111222 
WAVCIS,ioos:station:WAVCIS:CSI09:1,2009-04-07T19:00:00Z,29.1015,-89.9782,11.07,11111222 
WAVCIS,ioos:station:WAVCIS:CSI09:1,2009-04-07T20:00:00Z,29.1015,-89.9782,11.69,11111222 
WAVCIS,ioos:station:WAVCIS:CSI09:1,2009-04-07T21:00:00Z,29.1015,-89.9782,12.38,11111222 
WAVCIS,ioos:station:WAVCIS:CSI09:1,2009-04-07T22:00:00Z,29.1015,-89.9782,13.27,11111222 
WAVCIS,ioos:station:WAVCIS:CSI09:1,2009-04-07T23:00:00Z,29.1015,-89.9782,13.75,11111222 
WAVCIS,ioos:station:WAVCIS:CSI09:1,2009-04-08T00:00:00Z,29.1015,-89.9782,13.65,11111222 
WAVCIS,ioos:station:WAVCIS:CSI09:1,2009-04-08T01:00:00Z,29.1015,-89.9782,13.72,11111222 
WAVCIS,ioos:station:WAVCIS:CSI09:1,2009-04-08T02:00:00Z,29.1015,-89.9782,13.79,11111222 
WAVCIS,ioos:station:WAVCIS:CSI09:1,2009-04-08T03:00:00Z,29.1015,-89.9782,13.7,11111222 
WAVCIS,ioos:station:WAVCIS:CSI09:1,2009-04-08T04:00:00Z,29.1015,-89.9782,13.61,11111222 
WAVCIS,ioos:station:WAVCIS:CSI09:1,2009-04-08T05:00:00Z,29.1015,-89.9782,13.74,11111222 
WAVCIS,ioos:station:WAVCIS:CSI09:1,2009-04-08T06:00:00Z,29.1015,-89.9782,13.82,11111222 
WAVCIS,ioos:station:WAVCIS:CSI09:1,2009-04-08T07:00:00Z,29.1015,-89.9782,13.92,11111222 
WAVCIS,ioos:station:WAVCIS:CSI09:1,2009-04-08T08:00:00Z,29.1015,-89.9782,13.86,11111222 
WAVCIS,ioos:station:WAVCIS:CSI09:1,2009-04-08T09:00:00Z,29.1015,-89.9782,14.02,11111222 
WAVCIS,ioos:station:WAVCIS:CSI09:1,2009-04-08T10:00:00Z,29.1015,-89.9782,14.2,11111222 
WAVCIS,ioos:station:WAVCIS:CSI09:1,2009-04-08T11:00:00Z,29.1015,-89.9782,14.21,11111222 
WAVCIS,ioos:station:WAVCIS:CSI09:1,2009-04-08T12:00:00Z,29.1015,-89.9782,14.49,11111222 
WAVCIS,ioos:station:WAVCIS:CSI09:1,2009-04-08T13:00:00Z,29.1015,-89.9782,15.22,11111222 
WAVCIS,ioos:station:WAVCIS:CSI09:1,2009-04-08T14:00:00Z,29.1015,-89.9782,15.68,11111222 
WAVCIS,ioos:station:WAVCIS:CSI09:1,2009-04-08T15:00:00Z,29.1015,-89.9782,15.74,11111222 
WAVCIS,ioos:station:WAVCIS:CSI09:1,2009-04-08T16:00:00Z,29.1015,-89.9782,16.4,11111222 
WAVCIS,ioos:station:WAVCIS:CSI09:1,2009-04-08T17:00:00Z,29.1015,-89.9782,16.38,11111222 
WAVCIS,ioos:station:WAVCIS:CSI09:1,2009-04-08T18:00:00Z,29.1015,-89.9782,16.72,11111222 
WAVCIS,ioos:station:WAVCIS:CSI09:1,2009-04-08T19:00:00Z,29.1015,-89.9782,17.06,11111222 
WAVCIS,ioos:station:WAVCIS:CSI09:1,2009-04-08T20:00:00Z,29.1015,-89.9782,16.84,11111222 
WAVCIS,ioos:station:WAVCIS:CSI09:1,2009-04-08T21:00:00Z,29.1015,-89.9782,17.12,11111222 
WAVCIS,ioos:station:WAVCIS:CSI09:1,2009-04-08T22:00:00Z,29.1015,-89.9782,17.53,11111222 
WAVCIS,ioos:station:WAVCIS:CSI09:1,2009-04-08T23:00:00Z,29.1015,-89.9782,17.79,11111222 
WAVCIS,ioos:station:WAVCIS:CSI09:1,2009-04-09T00:00:00Z,29.1015,-89.9782,17.87,11111222 
WAVCIS,ioos:station:WAVCIS:CSI09:1,2009-04-09T01:00:00Z,29.1015,-89.9782,17.83,11111222 
WAVCIS,ioos:station:WAVCIS:CSI09:1,2009-04-09T02:00:00Z,29.1015,-89.9782,18.09,11111222 
WAVCIS,ioos:station:WAVCIS:CSI09:1,2009-04-09T03:00:00Z,29.1015,-89.9782,18.36,11111222 
WAVCIS,ioos:station:WAVCIS:CSI09:1,2009-04-09T04:00:00Z,29.1015,-89.9782,18.69,11111222 
WAVCIS,ioos:station:WAVCIS:CSI09:1,2009-04-09T05:00:00Z,29.1015,-89.9782,18.69,11111222 
WAVCIS,ioos:station:WAVCIS:CSI09:1,2009-04-09T06:00:00Z,29.1015,-89.9782,18.89,11111222 
WAVCIS,ioos:station:WAVCIS:CSI09:1,2009-04-09T07:00:00Z,29.1015,-89.9782,18.98,11111222 
WAVCIS,ioos:station:WAVCIS:CSI09:1,2009-04-09T08:00:00Z,29.1015,-89.9782,19.17,11111222 
WAVCIS,ioos:station:WAVCIS:CSI09:1,2009-04-09T09:00:00Z,29.1015,-89.9782,19.25,11111222 
WAVCIS,ioos:station:WAVCIS:CSI09:1,2009-04-09T10:00:00Z,29.1015,-89.9782,19.53,11111222 
WAVCIS,ioos:station:WAVCIS:CSI09:1,2009-04-09T11:00:00Z,29.1015,-89.9782,19.28,11111222 
WAVCIS,ioos:station:WAVCIS:CSI09:1,2009-04-09T12:00:00Z,29.1015,-89.9782,19.59,11111222 
WAVCIS,ioos:station:WAVCIS:CSI09:1,2009-04-09T13:00:00Z,29.1015,-89.9782,19.86,11111222 
WAVCIS,ioos:station:WAVCIS:CSI09:1,2009-04-09T14:00:00Z,29.1015,-89.9782,19.73,11111222 
WAVCIS,ioos:station:WAVCIS:CSI09:1,2009-04-09T15:00:00Z,29.1015,-89.9782,19.5,11111222 
WAVCIS,ioos:station:WAVCIS:CSI09:1,2009-04-09T16:00:00Z,29.1015,-89.9782,19.51,11111222 
WAVCIS,ioos:station:WAVCIS:CSI09:1,2009-04-09T17:00:00Z,29.1015,-89.9782,19.65,11111222 
WAVCIS,ioos:station:WAVCIS:CSI09:1,2009-04-09T18:00:00Z,29.1015,-89.9782,19.7,11111222 
WAVCIS,ioos:station:WAVCIS:CSI09:1,2009-04-09T19:00:00Z,29.1015,-89.9782,19.88,11111222 
WAVCIS,ioos:station:WAVCIS:CSI09:1,2009-04-09T20:00:00Z,29.1015,-89.9782,20.04,11111222 
WAVCIS,ioos:station:WAVCIS:CSI09:1,2009-04-09T21:00:00Z,29.1015,-89.9782,20.21,11111222 
WAVCIS,ioos:station:WAVCIS:CSI09:1,2009-04-09T22:00:00Z,29.1015,-89.9782,20.15,11111222 
WAVCIS,ioos:station:WAVCIS:CSI09:1,2009-04-09T23:00:00Z,29.1015,-89.9782,20.13,11111222 
WAVCIS,ioos:station:WAVCIS:CSI09:1,2009-04-10T00:00:00Z,29.1015,-89.9782,20.16,11111222 
WAVCIS,ioos:station:WAVCIS:CSI09:1,2009-04-10T01:00:00Z,29.1015,-89.9782,20.28,11111222 
WAVCIS,ioos:station:WAVCIS:CSI09:1,2009-04-10T02:00:00Z,29.1015,-89.9782,20.34,11111222 
WAVCIS,ioos:station:WAVCIS:CSI09:1,2009-04-10T03:00:00Z,29.1015,-89.9782,20.5,11111222 
WAVCIS,ioos:station:WAVCIS:CSI09:1,2009-04-10T04:00:00Z,29.1015,-89.9782,20.45,11111222 
WAVCIS,ioos:station:WAVCIS:CSI09:1,2009-04-10T05:00:00Z,29.1015,-89.9782,20.34,11111222 
WAVCIS,ioos:station:WAVCIS:CSI09:1,2009-04-10T06:00:00Z,29.1015,-89.9782,20.5,11111222 
WAVCIS,ioos:station:WAVCIS:CSI09:1,2009-04-10T07:00:00Z,29.1015,-89.9782,20.5,11111222 
WAVCIS,ioos:station:WAVCIS:CSI09:1,2009-04-10T08:00:00Z,29.1015,-89.9782,20.83,11111222 
WAVCIS,ioos:station:WAVCIS:CSI09:1,2009-04-10T09:00:00Z,29.1015,-89.9782,20.68,11111222 
WAVCIS,ioos:station:WAVCIS:CSI09:1,2009-04-10T10:00:00Z,29.1015,-89.9782,20.48,11111222 
WAVCIS,ioos:station:WAVCIS:CSI09:1,2009-04-10T11:00:00Z,29.1015,-89.9782,20.07,11111222 
WAVCIS,ioos:station:WAVCIS:CSI09:1,2009-04-10T12:00:00Z,29.1015,-89.9782,20.02,11111222 
WAVCIS,ioos:station:WAVCIS:CSI09:1,2009-04-10T13:00:00Z,29.1015,-89.9782,20.38,11111222 
WAVCIS,ioos:station:WAVCIS:CSI09:1,2009-04-10T14:00:00Z,29.1015,-89.9782,20.48,11111222 
WAVCIS,ioos:station:WAVCIS:CSI09:1,2009-04-10T15:00:00Z,29.1015,-89.9782,20.67,11111222 
WAVCIS,ioos:station:WAVCIS:CSI09:1,2009-04-10T16:00:00Z,29.1015,-89.9782,21.04,11111222 
WAVCIS,ioos:station:WAVCIS:CSI09:1,2009-04-10T17:00:00Z,29.1015,-89.9782,21.24,11111222 
WAVCIS,ioos:station:WAVCIS:CSI09:1,2009-04-10T18:00:00Z,29.1015,-89.9782,21.82,11111222 
WAVCIS,ioos:station:WAVCIS:CSI09:1,2009-04-10T19:00:00Z,29.1015,-89.9782,21.17,11111222 
WAVCIS,ioos:station:WAVCIS:CSI09:1,2009-04-10T20:00:00Z,29.1015,-89.9782,21.58,11111222 
WAVCIS,ioos:station:WAVCIS:CSI09:1,2009-04-10T21:00:00Z,29.1015,-89.9782,21.71,11111222 
WAVCIS,ioos:station:WAVCIS:CSI09:1,2009-04-10T22:00:00Z,29.1015,-89.9782,22.24,11111222 
WAVCIS,ioos:station:WAVCIS:CSI09:1,2009-04-10T23:00:00Z,29.1015,-89.9782,22.59,11111222 
WAVCIS,ioos:station:WAVCIS:CSI09:1,2009-04-11T00:00:00Z,29.1015,-89.9782,21.85,11111222 
WAVCIS,ioos:station:WAVCIS:CSI09:1,2009-04-11T01:00:00Z,29.1015,-89.9782,21.51,11111222 
WAVCIS,ioos:station:WAVCIS:CSI09:1,2009-04-11T02:00:00Z,29.1015,-89.9782,21.62,11111222 
WAVCIS,ioos:station:WAVCIS:CSI09:1,2009-04-11T03:00:00Z,29.1015,-89.9782,22.11,11111222 
WAVCIS,ioos:station:WAVCIS:CSI09:1,2009-04-11T04:00:00Z,29.1015,-89.9782,21.27,11111222 
WAVCIS,ioos:station:WAVCIS:CSI09:1,2009-04-11T05:00:00Z,29.1015,-89.9782,21.53,11111222 
WAVCIS,ioos:station:WAVCIS:CSI09:1,2009-04-11T06:00:00Z,29.1015,-89.9782,21.53,11111222 
WAVCIS,ioos:station:WAVCIS:CSI09:1,2009-04-11T07:00:00Z,29.1015,-89.9782,22.02,11111222 
WAVCIS,ioos:station:WAVCIS:CSI09:1,2009-04-11T08:00:00Z,29.1015,-89.9782,21.9,11111222 
WAVCIS,ioos:station:WAVCIS:CSI09:1,2009-04-11T09:00:00Z,29.1015,-89.9782,21.06,11111222 
WAVCIS,ioos:station:WAVCIS:CSI09:1,2009-04-11T10:00:00Z,29.1015,-89.9782,20.82,11111222 
WAVCIS,ioos:station:WAVCIS:CSI09:1,2009-04-11T11:00:00Z,29.1015,-89.9782,20.95,11111222 
WAVCIS,ioos:station:WAVCIS:CSI09:1,2009-04-11T12:00:00Z,29.1015,-89.9782,19.73,11111222 
WAVCIS,ioos:station:WAVCIS:CSI09:1,2009-04-11T13:00:00Z,29.1015,-89.9782,19.42,11111222 
WAVCIS,ioos:station:WAVCIS:CSI09:1,2009-04-11T14:00:00Z,29.1015,-89.9782,18.77,11111222 
WAVCIS,ioos:station:WAVCIS:CSI09:1,2009-04-11T15:00:00Z,29.1015,-89.9782,18.67,11111222 
WAVCIS,ioos:station:WAVCIS:CSI09:1,2009-04-11T16:00:00Z,29.1015,-89.9782,18.69,11111222 
WAVCIS,ioos:station:WAVCIS:CSI09:1,2009-04-11T17:00:00Z,29.1015,-89.9782,18.82,11111222 
WAVCIS,ioos:station:WAVCIS:CSI09:1,2009-04-11T18:00:00Z,29.1015,-89.9782,18.93,11111222 
WAVCIS,ioos:station:WAVCIS:CSI09:1,2009-04-11T19:00:00Z,29.1015,-89.9782,18.89,11111222 
WAVCIS,ioos:station:WAVCIS:CSI09:1,2009-04-11T20:00:00Z,29.1015,-89.9782,18.59,11111222 
WAVCIS,ioos:station:WAVCIS:CSI09:1,2009-04-11T21:00:00Z,29.1015,-89.9782,18.73,11111222 
WAVCIS,ioos:station:WAVCIS:CSI09:1,2009-04-11T22:00:00Z,29.1015,-89.9782,18.81,11111222 
WAVCIS,ioos:station:WAVCIS:CSI09:1,2009-04-11T23:00:00Z,29.1015,-89.9782,18.85,11111222 
WAVCIS,ioos:station:WAVCIS:CSI09:1,2009-04-12T00:00:00Z,29.1015,-89.9782,19.02,11111222 
WAVCIS,ioos:station:WAVCIS:CSI09:1,2009-04-12T01:00:00Z,29.1015,-89.9782,19.3,11111222 
WAVCIS,ioos:station:WAVCIS:CSI09:1,2009-04-12T02:00:00Z,29.1015,-89.9782,19.34,11111222 
WAVCIS,ioos:station:WAVCIS:CSI09:1,2009-04-12T03:00:00Z,29.1015,-89.9782,19.47,11111222 
WAVCIS,ioos:station:WAVCIS:CSI09:1,2009-04-12T04:00:00Z,29.1015,-89.9782,19.6,11111222 